GSAT-17

Last updated on Sat Jul 05 2025 00:02:32 GMT+0000 (Coordinated Universal Time)

1 42815U 17040B 25185.58397338 -.00000244 00000+0 00000+0 0 9998 2 42815 0.0396 103.4068 0001358 180.7240 302.4141 1.00270345 29302
UTC large
Height (km)
Speed (km/s)
/
Latitude / Longitude
Inclination (degrees)
Orbital Period (minutes)
Azimuth
Elevation
Range (km)
Doppler Factor

Next 0 passes for location: London (51.5072 / 0.1276)

Sorry there are no passes over London.